Location: Moydans
(44.3997°N, 5.5038°E)
Time: 03:11:11
(UTC+02:00)

Envisat - Pass Details

Date: 05 October 2021
Orbit: 764 x 766 km, 98.2° (Epoch: 17 October)

Event Time Altitude Azimuth Distance (km) Brightness Sun altitude
Rises 06:24:52 0° 18° (NNE) 3,239 6.6 -14.3°
Reaches altitude 10° 06:27:15 10° 24° (NNE) 2,308 5.9 -13.9°
Maximum altitude 06:32:11 50° 99° (E) 970 4.0 -13.0°
Drops below altitude 10° 06:37:05 10° 175° (S) 2,292 5.5 -12.2°
Sets 06:39:27 0° 180° (S) 3,213 6.2 -11.7°
